COMS 1                  
1 36744U 10032A   19260.99771750 -.00000348  00000-0  00000+0 0  9998
2 36744   0.0173 134.9728 0001124  70.7527 278.2331  1.00269796 33942
ARABSAT-5A              
1 36745U 10032B   19260.84595060  .00000149  00000-0  00000-0 0  9990
2 36745   0.0684  45.9535 0004255 123.0943 162.3991  1.00273987 33930
ARIANE 5 R/B            
1 36746U 10032C   19260.51063092  .00000177  00000-0  14333-3 0  9998
2 36746   1.8285  49.7469 7148537 214.4410  66.5778  2.43599239 79913
ARIANE 5 DEB [SYLDA]    
1 36747U 10032D   19261.36888030  .00003974  00000-0  11985-2 0  9997
2 36747   1.7750 293.8338 6252140 100.7478 330.5223  3.65413306100912